Flag for Germany Weather past 2 weeks in Wittenberge, Mecklenburg-Western Pomerania, Germany

Now
57 °F

Overcast.


Feels Like: 58 °F
Forecast: 47 / 64 °F
Wind: 3 mph from Northwest

Location: Marnitz

Current Time: May 27, 2015 at 6:15:39 PM

Latest Report: May 27, 2015 at 6:00 PM


Visibility: 25 mi

Pressure: 30.11 "Hg

Humidity: 55%

Dew point: 41 °F

Location of WittenbergeLocation

Historic Weather in Wittenberge — Graph

°F

Wittenberge temperature yesterday

Maximum temperature yesterday: 57 °F (at 1:00 PM)
Minimum temperature yesterday: 43 °F (at 1:00 AM)
Average temperature yesterday: 51 °F

Past Weeks' High & Low Weather Summary

 TemperatureHumidityPressure
High67 °F (May 24, 5:00 PM)99% (May 21, 2:00 AM)30.30 "Hg (May 21, 2:00 AM)
Low38 °F (May 16, 6:00 AM)37% (May 19, 5:00 PM)29.58 "Hg (May 19, 1:00 AM)
Average52 °F72%30.01 "Hg
* Reported May 12 5:00 PM — May 27 5:00 PM, Wittenberge, Weather by CustomWeather, © 2015

Note: Actual official high and low records may vary slightly from our data, if they occured in-between our weather recording intervals... More about our weather records

Advertising

Wittenberge weather history for previous 24 hours

 ConditionsComfort  
Time TempWeatherWind HumidityBarometerVisibility
5:00 PM
Wed, May 27
56 °FOvercast.5 mph59%30.11 "Hg34 mi
4:00 PM56 °FOvercast.6 mph53%30.11 "Hg31 mi
3:00 PM55 °FOvercast.6 mph57%30.12 "Hg31 mi
2:00 PM55 °FOvercast.5 mph58%30.13 "Hg22 mi
1:00 PM53 °FOvercast.6 mph61%30.13 "Hg31 mi
12:00 PM52 °FOvercast.6 mph64%30.14 "Hg28 mi
11:00 AM51 °FOvercast.6 mph65%30.13 "Hg31 mi
10:00 AM50 °FOvercast.5 mph73%30.13 "Hg22 mi
9:00 AM49 °FOvercast.5 mph83%30.12 "Hg18 mi
8:00 AM47 °FOvercast.3 mph90%30.12 "Hg13 mi
7:00 AM46 °FDrizzle. Overcast.3 mph88%30.11 "Hg15 mi
6:00 AM45 °FOvercast.3 mph90%30.11 "Hg16 mi
5:00 AM44 °FOvercast.5 mph92%30.11 "Hg16 mi
4:00 AM42 °FPassing clouds.3 mph92%30.11 "Hg15 mi
3:00 AM42 °FPassing clouds.2 mph93%30.12 "Hg18 mi
2:00 AM42 °FPassing clouds.3 mph90%30.11 "Hg22 mi
1:00 AM42 °FClear.2 mph90%30.10 "Hg22 mi
12:00 AM45 °FClear.3 mph82%30.09 "Hg28 mi
11:00 PM
Tue, May 26
44 °FClear.2 mph82%30.09 "Hg28 mi
10:00 PM49 °FClear.3 mph69%30.08 "Hg34 mi
9:00 PM52 °FPassing clouds.2 mph67%30.06 "Hg34 mi
8:00 PM57 °FPartly sunny.3 mph56%30.04 "Hg34 mi
7:00 PM55 °FPartly sunny.5 mph63%30.03 "Hg34 mi
6:00 PM54 °FOvercast.5 mph69%30.03 "Hg34 mi
Weather by CustomWeather, © 2015

See weather overviewHow to use our weather pages